Flag for Brazil Weather past 2 weeks in Belo Horizonte, Minas Gerais, Brazil

Now
59 °F

Clear.


Feels Like: 59 °F
Forecast: 55 / 81 °F
Wind: 5 mph from Southeast

Location: Belo Horizonte Airport

Current Time: Aug 3, 2015 at 1:45:14 AM

Latest Report: Aug 3, 2015 at 1:00 AM


Visibility: 10 mi

Pressure: 30.18 "Hg (27.25 "Hg at 860m altitude)

Humidity: 77%

Dew point: 52 °F

Location of Belo HorizonteLocation

Historic Weather in Belo Horizonte — Graph

°F

Belo Horizonte temperature yesterday

Maximum temperature yesterday: 75 °F (at 3:00 PM)
Minimum temperature yesterday: 54 °F (at 5:00 AM)
Average temperature yesterday: 64 °F

Past Weeks' High & Low Weather Summary

 TemperatureHumidityPressure
High81 °F (Jul 26, 3:00 PM)100% (Jul 24, 5:00 AM)30.33 "Hg (Jul 24, 5:00 AM)
Low52 °F (Jul 21, 6:00 AM)37% (Jul 25, 3:00 PM)30.07 "Hg (Jul 26, 3:00 PM)
Average66 °F69%30.20 "Hg
* Reported Midnight between Jul 18 and Jul 19 — Midnight between Aug 2 and Aug 3, Belo Horizonte, Weather by CustomWeather, © 2015

Note: Actual official high and low records may vary slightly from our data, if they occured in-between our weather recording intervals... More about our weather records

Advertising

Belo Horizonte weather history for previous 24 hours

 ConditionsComfort  
Time TempWeatherWind HumidityBarometerVisibility
12:00 AM
Mon, Aug 3
59 °FClear.3 mph77%30.21 "Hg10 mi
11:00 PM
Sun, Aug 2
61 °FClear.3 mph72%30.21 "Hg10 mi
10:00 PM64 °FClear.9 mph68%30.21 "Hg10 mi
9:00 PM64 °FClear.13 mph64%30.18 "Hg10 mi
8:00 PM66 °FClear.10 mph60%30.18 "Hg10 mi
7:00 PM68 °FClear.12 mph56%30.15 "Hg10 mi
6:00 PM70 °FClear.10 mph53%30.15 "Hg10 mi
5:00 PM73 °FSunny.8 mph44%30.12 "Hg10 mi
4:00 PM73 °FSunny.10 mph44%30.12 "Hg10 mi
3:00 PM75 °FSunny.9 mph41%30.12 "Hg10 mi
2:00 PM73 °FPassing clouds.9 mph41%30.15 "HgN/A
1:00 PM73 °FPassing clouds.7 mph44%30.18 "HgN/A
12:00 PM72 °FScattered clouds.12 mph47%30.21 "HgN/A
11:00 AM70 °FScattered clouds.9 mph53%30.24 "HgN/A
10:00 AM68 °FSunny.12 mph60%30.24 "Hg10 mi
9:00 AM64 °FSunny.7 mph68%30.24 "Hg10 mi
8:00 AM57 °FSunny.2 mph77%30.21 "Hg10 mi
7:00 AM55 °FSunny.1 mph82%30.18 "Hg10 mi
6:00 AM54 °FClear.1 mph88%30.15 "Hg10 mi
5:00 AM54 °FClear.2 mph94%30.15 "Hg10 mi
4:00 AM55 °FClear.1 mph88%30.15 "Hg10 mi
3:00 AM57 °FClear.5 mph88%30.18 "Hg10 mi
2:00 AM57 °FClear.3 mph88%30.18 "Hg10 mi
1:00 AM59 °FClear.2 mph82%30.21 "Hg10 mi
Weather by CustomWeather, © 2015

See weather overviewHow to use our weather pages